NW Arkansas Airport, AR

4:10 AM CST on December 16, 2017 (GMT -0600)
Northwest Arkansas Regional

Weather History for KXNA - October, 2013

Change the Weather History Date:

Sunday, October 20, 2013

  Actual Average (KVBT) Record (KVBT)
Temperature  
Mean Temperature 52 °F -  
Max Temperature 66 °F 67 °F 87 °F (1950)
Min Temperature 39 °F 42 °F 19 °F (1989)
Degree Days  
Heating Degree Days 14    
Growing Degree Days 2 (Base 50)    
Moisture  
Dew Point 39 °F    
Average Humidity 66    
Maximum Humidity 89    
Minimum Humidity 36    
Precipitation  
Precipitation 0.00 in - - ()
Sea Level Pressure  
Sea Level Pressure 29.97 in    
Wind  
Wind Speed 7 mph (SSW)    
Max Wind Speed 16 mph    
Max Gust Speed 22 mph    
Visibility 10 miles    
Events      
Averages and records for this station are not official NWS values.
T = Trace of Precipitation, MM = Missing Value Source: NWS Daily Summary

Daily Weather History Graph

Daily Weather History Graph

Search for Another Location

Airport or City:

Trip Planner

Search our weather history database for the weather conditions in past years. The results will help you decide how hot, cold, wet, or windy it might be!

Date:

Astronomy

Oct. 20, 2013 Rise Set
Actual Time 7:29 AM CDT 6:34 PM CDT
Civil Twilight 7:02 AM CDT 7:00 PM CDT
Nautical Twilight 6:32 AM CDT 7:30 PM CDT
Astronomical Twilight 6:03 AM CDT 8:00 PM CDT
Moon 7:47 PM CDT (10/20) 9:04 AM CDT (10/20)
Length of Visible Light 11h 57m
Length of Day
11h 05m
Full, 97% of the Moon is Illuminated
Oct 20
Full
Oct 26
Last Quarter
Nov 3
New
Nov 9
First Quarter
Nov 17
Full

Hourly Weather History & Observations

Time (CDT) Temp. Windchill Dew Point Humidity Pressure Visibility Wind Dir Wind Speed Gust Speed Precip Events Conditions
12:53 AM 41.0 °F 39.0 °F 37.0 °F 86% 30.04 in 10.0 mi South 3.5 mph - N/A   Clear
1:53 AM 39.9 °F 37.8 °F 36.0 °F 86% 30.03 in 10.0 mi SSW 3.5 mph - N/A   Clear
2:53 AM 39.9 °F 36.7 °F 37.0 °F 89% 30.01 in 10.0 mi SSW 4.6 mph - N/A   Clear
3:53 AM 39.9 °F 35.8 °F 36.0 °F 86% 30.00 in 10.0 mi SSW 5.8 mph - N/A   Clear
4:53 AM 39.9 °F 35.8 °F 36.0 °F 86% 29.99 in 10.0 mi SSW 5.8 mph - N/A   Clear
5:53 AM 39.9 °F 36.7 °F 36.0 °F 86% 29.99 in 10.0 mi SSW 4.6 mph - N/A   Clear
6:53 AM 39.9 °F 35.1 °F 36.0 °F 86% 30.00 in 10.0 mi SSW 6.9 mph - N/A   Clear
7:53 AM 41.0 °F 37.1 °F 37.0 °F 86% 30.01 in 10.0 mi SSW 5.8 mph - N/A   Clear
8:53 AM 46.0 °F 43.1 °F 39.9 °F 79% 30.02 in 10.0 mi South 5.8 mph - N/A   Clear
9:53 AM 53.1 °F - 42.1 °F 66% 30.02 in 10.0 mi SSW 10.4 mph - N/A   Clear
10:53 AM 57.9 °F - 39.9 °F 51% 30.01 in 10.0 mi SSW 11.5 mph 20.7 mph N/A   Clear
11:53 AM 61.0 °F - 39.0 °F 44% 30.00 in 10.0 mi SW 12.7 mph 21.9 mph N/A   Clear
12:53 PM 63.0 °F - 37.9 °F 40% 29.98 in 10.0 mi SSW 12.7 mph 21.9 mph N/A   Clear
1:53 PM 64.9 °F - 37.9 °F 37% 29.94 in 10.0 mi South 15.0 mph 18.4 mph N/A   Clear
2:53 PM 64.9 °F - 37.0 °F 36% 29.92 in 10.0 mi South 15.0 mph 21.9 mph N/A   Clear
3:53 PM 64.9 °F - 37.0 °F 36% 29.90 in 10.0 mi South 16.1 mph - N/A   Clear
4:53 PM 64.0 °F - 37.9 °F 38% 29.89 in 10.0 mi South 13.8 mph - N/A   Clear
5:53 PM 61.0 °F - 42.1 °F 50% 29.89 in 10.0 mi South 10.4 mph - N/A   Clear
6:53 PM 55.9 °F - 42.1 °F 60% 29.91 in 10.0 mi South 8.1 mph - N/A   Clear
7:53 PM 54.0 °F - 41.0 °F 62% 29.92 in 10.0 mi SSE 3.5 mph - N/A   Clear
8:53 PM 51.1 °F - 42.1 °F 71% 29.94 in 10.0 mi Calm Calm - N/A   Partly Cloudy
9:53 PM 52.0 °F - 44.1 °F 74% 29.96 in 10.0 mi Calm Calm - N/A   Overcast
10:53 PM 53.1 °F - 43.0 °F 69% 29.97 in 10.0 mi SSW 4.6 mph - N/A   Overcast
11:53 PM 52.0 °F - 43.0 °F 71% 29.96 in 10.0 mi SSW 8.1 mph - N/A   Mostly Cloudy